TimeEST,TemperatureF,Dew PointF,Humidity,Sea Level PressureIn,VisibilityMPH,Wind Direction,Wind SpeedMPH,Gust SpeedMPH,PrecipitationIn,Events,Conditions,WindDirDegrees,DateUTC
12:52 AM,33.1,28.9,85,30.19,9.0,North,5.8,-,N/A,,Scattered Clouds,350,2012-11-28 05:52:00
1:52 AM,33.1,28.9,85,30.20,9.0,North,4.6,-,N/A,,Mostly Cloudy,350,2012-11-28 06:52:00
2:52 AM,33.1,28.9,85,30.19,10.0,NNE,4.6,-,N/A,,Overcast,30,2012-11-28 07:52:00
3:52 AM,33.1,28.9,85,30.17,9.0,North,3.5,-,N/A,,Overcast,350,2012-11-28 08:52:00
4:05 AM,33.8,28.4,81,30.17,9.0,NNW,3.5,-,N/A,,Overcast,330,2012-11-28 09:05:00
4:19 AM,33.8,28.4,81,30.18,9.0,NNW,4.6,-,N/A,,Overcast,330,2012-11-28 09:19:00
4:52 AM,34.0,28.9,82,30.20,10.0,North,4.6,-,N/A,,Overcast,360,2012-11-28 09:52:00
5:52 AM,33.1,28.9,85,30.20,10.0,North,4.6,-,N/A,,Overcast,350,2012-11-28 10:52:00
6:52 AM,32.0,28.0,85,30.20,9.0,North,3.5,-,N/A,,Overcast,10,2012-11-28 11:52:00
7:52 AM,33.1,28.0,82,30.22,10.0,WNW,3.5,-,N/A,,Overcast,300,2012-11-28 12:52:00
8:52 AM,33.1,28.0,82,30.21,10.0,NNW,3.5,-,N/A,,Overcast,330,2012-11-28 13:52:00
9:52 AM,34.0,28.0,79,30.20,10.0,North,5.8,-,N/A,,Overcast,10,2012-11-28 14:52:00
10:52 AM,36.0,28.9,76,30.19,10.0,North,3.5,-,N/A,,Mostly Cloudy,350,2012-11-28 15:52:00
11:52 AM,37.9,27.0,65,30.17,10.0,Calm,Calm,-,N/A,,Clear,0,2012-11-28 16:52:00
12:52 PM,37.9,25.0,60,30.16,10.0,North,8.1,-,N/A,,Partly Cloudy,350,2012-11-28 17:52:00
1:52 PM,39.0,25.0,57,30.14,10.0,North,8.1,-,N/A,,Mostly Cloudy,350,2012-11-28 18:52:00
2:52 PM,39.0,24.1,55,30.14,10.0,NW,5.8,-,N/A,,Mostly Cloudy,310,2012-11-28 19:52:00
3:52 PM,37.9,23.0,55,30.15,10.0,WNW,5.8,-,N/A,,Mostly Cloudy,290,2012-11-28 20:52:00
4:52 PM,36.0,21.9,57,30.15,10.0,Calm,Calm,-,N/A,,Partly Cloudy,0,2012-11-28 21:52:00
5:52 PM,36.0,21.0,55,30.18,10.0,West,3.5,-,N/A,,Mostly Cloudy,280,2012-11-28 22:52:00
6:52 PM,35.1,21.0,57,30.19,10.0,Calm,Calm,-,N/A,,Partly Cloudy,0,2012-11-28 23:52:00
7:52 PM,33.1,21.0,61,30.20,10.0,Calm,Calm,-,N/A,,Clear,0,2012-11-29 00:52:00
8:52 PM,30.9,21.9,69,30.21,10.0,West,3.5,-,N/A,,Clear,260,2012-11-29 01:52:00
9:52 PM,30.0,21.9,72,30.21,10.0,West,3.5,-,N/A,,Clear,260,2012-11-29 02:52:00
10:52 PM,30.9,21.0,67,30.21,10.0,West,4.6,-,N/A,,Clear,260,2012-11-29 03:52:00
11:52 PM,30.0,21.0,69,30.22,10.0,West,4.6,-,N/A,,Clear,260,2012-11-29 04:52:00